TUG515 UHSS-UHWW

Flight info

Callsign TUG515
Flight time 1h 47m
Altitude 36000
Route KENOM B919 TIMIT R810 TD B355 BG DAGES
Aircraft T154/M-L/C

Departure

Time 2026-05-01 08:13
Airport Yuzhno-Sakhalinsk International Airport (UHSS)

Arrival

Time 2026-05-01 10:00
Airport Vladivostok International Airport (UHWW)
Time Latitude Longitude Altitude Speed Heading
2026-05-01 07:23 46.88629 142.72168 71 ft 0 kts
2026-05-01 08:04 46.88630 142.72168 70 ft 0 kts
2026-05-01 08:05 46.88689 142.72156 70 ft 4 kts 308°
2026-05-01 08:05 46.88699 142.72107 70 ft 5 kts 276°
2026-05-01 08:05 46.88701 142.72057 70 ft 4 kts 271°
2026-05-01 08:06 46.88701 142.71957 70 ft 4 kts 270°
2026-05-01 08:06 46.88701 142.71953 70 ft 0 kts 270°
2026-05-01 08:07 46.88703 142.71831 71 ft 7 kts 274°
2026-05-01 08:07 46.88770 142.71748 71 ft 8 kts 359°
2026-05-01 08:08 46.88829 142.71748 71 ft 9 kts
2026-05-01 08:08 46.88972 142.71753 71 ft 11 kts
2026-05-01 08:09 46.89138 142.71756 71 ft 12 kts
2026-05-01 08:09 46.89231 142.71759 71 ft 13 kts
2026-05-01 08:09 46.89329 142.71761 71 ft 14 kts
2026-05-01 08:10 46.89542 142.71765 70 ft 16 kts
2026-05-01 08:10 46.89775 142.71771 70 ft 17 kts
2026-05-01 08:11 46.89995 142.71800 70 ft 15 kts 26°
2026-05-01 08:11 46.90031 142.71774 70 ft 7 kts 175°
2026-05-01 08:12 46.89988 142.71776 70 ft 0 kts 181°
2026-05-01 08:12 46.89423 142.71764 71 ft 100 kts 181°
2026-05-01 08:13 46.88560 142.71739 72 ft 145 kts 181°
2026-05-01 08:13 46.87488 142.71727 260 ft 159 kts 182°
2026-05-01 08:13 46.85282 142.71706 994 ft 160 kts 186°
2026-05-01 08:14 46.84212 142.71271 1331 ft 160 kts 210°
2026-05-01 08:14 46.83371 142.70267 1762 ft 156 kts 230°
2026-05-01 08:14 46.82853 142.68872 2098 ft 161 kts 251°
2026-05-01 08:14 46.82746 142.67212 2373 ft 169 kts 270°
2026-05-01 08:15 46.82780 142.65523 2801 ft 164 kts 265°
2026-05-01 08:15 46.82824 142.62169 3355 ft 172 kts 265°
2026-05-01 08:15 46.82847 142.60417 3648 ft 174 kts 265°
2026-05-01 08:16 46.82870 142.58633 3864 ft 180 kts 266°
2026-05-01 08:16 46.82908 142.56751 4081 ft 193 kts 267°
2026-05-01 08:16 46.82957 142.54755 4492 ft 200 kts 268°
2026-05-01 08:16 46.82999 142.52681 4818 ft 211 kts 268°
2026-05-01 08:17 46.83036 142.50534 5256 ft 219 kts 268°
2026-05-01 08:17 46.83060 142.48254 5937 ft 225 kts 268°
2026-05-01 08:17 46.83094 142.46002 6648 ft 229 kts 269°
2026-05-01 08:17 46.83149 142.43623 7233 ft 238 kts 270°
2026-05-01 08:18 46.83208 142.41232 8035 ft 237 kts 270°
2026-05-01 08:18 46.83294 142.36351 9311 ft 251 kts 271°
2026-05-01 08:19 46.83400 142.31047 10329 ft 275 kts 269°
2026-05-01 08:19 46.83443 142.28252 11031 ft 278 kts 269°
2026-05-01 08:19 46.83481 142.25418 11643 ft 285 kts 269°
2026-05-01 08:19 46.83530 142.22461 12125 ft 297 kts 269°
2026-05-01 08:20 46.83588 142.19429 12562 ft 309 kts 269°
2026-05-01 08:20 46.83640 142.16231 12904 ft 324 kts 269°
2026-05-01 08:20 46.83697 142.12901 13383 ft 333 kts 269°
2026-05-01 08:20 46.83746 142.09554 13981 ft 337 kts 269°
2026-05-01 08:21 46.83798 142.06131 14550 ft 342 kts 269°
2026-05-01 08:21 46.83858 142.02594 15075 ft 349 kts 269°
2026-05-01 08:21 46.83913 141.99116 15756 ft 350 kts 268°
2026-05-01 08:21 46.83960 141.95564 16523 ft 348 kts 268°
2026-05-01 08:22 46.84011 141.92068 17087 ft 353 kts 268°
2026-05-01 08:22 46.84063 141.88440 17700 ft 356 kts 268°
2026-05-01 08:22 46.84110 141.84848 18357 ft 356 kts 268°
2026-05-01 08:22 46.84178 141.81259 18985 ft 358 kts 268°
2026-05-01 08:23 46.84211 141.77696 19639 ft 357 kts 265°
2026-05-01 08:23 46.84023 141.74087 20290 ft 355 kts 260°
2026-05-01 08:23 46.83708 141.70567 20969 ft 353 kts 260°
2026-05-01 08:23 46.83429 141.66994 21622 ft 353 kts 262°
2026-05-01 08:24 46.83191 141.63419 22142 ft 357 kts 262°
2026-05-01 08:24 46.82963 141.59831 22626 ft 360 kts 262°
2026-05-01 08:24 46.82741 141.56236 23171 ft 361 kts 262°
2026-05-01 08:24 46.82523 141.52567 23716 ft 362 kts 263°
2026-05-01 08:25 46.82302 141.48940 24156 ft 366 kts 262°
2026-05-01 08:25 46.82062 141.45247 24702 ft 366 kts 262°
2026-05-01 08:25 46.81837 141.41585 25299 ft 365 kts 262°
2026-05-01 08:25 46.81631 141.37923 25773 ft 367 kts 262°
2026-05-01 08:26 46.81385 141.34190 26284 ft 367 kts 261°
2026-05-01 08:26 46.81150 141.30551 26843 ft 367 kts 261°
2026-05-01 08:26 46.80931 141.26842 27380 ft 367 kts 262°
2026-05-01 08:26 46.80730 141.23137 27838 ft 369 kts 261°
2026-05-01 08:27 46.80527 141.19441 28255 ft 372 kts 261°
2026-05-01 08:27 46.80312 141.15709 28688 ft 373 kts 260°
2026-05-01 08:27 46.80093 141.11968 29147 ft 374 kts 261°
2026-05-01 08:27 46.79864 141.08223 29594 ft 375 kts 260°
2026-05-01 08:28 46.79647 141.04512 29973 ft 377 kts 261°
2026-05-01 08:28 46.79417 141.00694 30358 ft 379 kts 260°
2026-05-01 08:28 46.79187 140.96876 30785 ft 381 kts 259°
2026-05-01 08:28 46.78962 140.93063 31115 ft 385 kts 259°
2026-05-01 08:29 46.78720 140.89230 31415 ft 388 kts 259°
2026-05-01 08:29 46.78477 140.85321 31735 ft 392 kts 259°
2026-05-01 08:29 46.78249 140.81433 32102 ft 394 kts 259°
2026-05-01 08:29 46.78005 140.77455 32477 ft 395 kts 258°
2026-05-01 08:30 46.77750 140.73544 32828 ft 397 kts 258°
2026-05-01 08:30 46.77506 140.69579 33161 ft 399 kts 259°
2026-05-01 08:30 46.77269 140.65570 33454 ft 401 kts 258°
2026-05-01 08:30 46.77011 140.61514 33825 ft 402 kts 257°
2026-05-01 08:31 46.76749 140.57492 34137 ft 403 kts 258°
2026-05-01 08:31 46.76491 140.53438 34481 ft 403 kts 258°
2026-05-01 08:31 46.76244 140.49420 34712 ft 405 kts 257°
2026-05-01 08:31 46.75964 140.45293 34933 ft 407 kts 258°
2026-05-01 08:32 46.75704 140.41238 35118 ft 410 kts 258°
2026-05-01 08:32 46.75441 140.37126 35359 ft 411 kts 258°
2026-05-01 08:32 46.75161 140.32959 35546 ft 413 kts 258°
2026-05-01 08:32 46.74892 140.28833 35752 ft 415 kts 258°
2026-05-01 08:33 46.74622 140.24677 35884 ft 418 kts 258°
2026-05-01 08:33 46.74059 140.16284 36006 ft 427 kts 258°
2026-05-01 08:34 46.73453 140.07738 35991 ft 423 kts 258°
2026-05-01 08:34 46.72810 139.99405 35965 ft 415 kts 257°
2026-05-01 08:35 46.72217 139.91190 35957 ft 408 kts 258°
2026-05-01 08:35 46.71637 139.83125 35945 ft 402 kts 257°
2026-05-01 08:36 46.71059 139.75224 35948 ft 396 kts 258°
2026-05-01 08:36 46.70477 139.67345 35949 ft 392 kts 257°
2026-05-01 08:37 46.69895 139.59537 35948 ft 388 kts 257°
2026-05-01 08:37 46.69310 139.51781 35956 ft 384 kts 257°
2026-05-01 08:38 46.68733 139.44191 35954 ft 381 kts 257°
2026-05-01 08:38 46.68159 139.36691 35951 ft 378 kts 256°
2026-05-01 08:39 46.67587 139.29146 35926 ft 377 kts 256°
2026-05-01 08:39 46.67016 139.21628 35938 ft 375 kts 256°
2026-05-01 08:40 46.66149 139.10422 35944 ft 372 kts 256°
2026-05-01 08:40 46.65569 139.03014 35947 ft 371 kts 256°
2026-05-01 08:41 46.64988 138.95648 35954 ft 369 kts 256°
2026-05-01 08:41 46.64398 138.88243 35956 ft 372 kts 256°
2026-05-01 08:42 46.63796 138.80745 35969 ft 377 kts 256°
2026-05-01 08:42 46.63180 138.73148 35964 ft 383 kts 256°
2026-05-01 08:43 46.62549 138.65430 35973 ft 391 kts 256°
2026-05-01 08:43 46.61293 138.57861 35977 ft 390 kts 249°
2026-05-01 08:44 46.59878 138.50191 35978 ft 398 kts 250°
2026-05-01 08:44 46.58471 138.42355 35970 ft 403 kts 250°
2026-05-01 08:45 46.57062 138.34532 35971 ft 407 kts 250°
2026-05-01 08:45 46.55626 138.26529 35938 ft 412 kts 249°
2026-05-01 08:46 46.54164 138.18455 35946 ft 415 kts 250°
2026-05-01 08:46 46.52700 138.10413 35950 ft 418 kts 250°
2026-05-01 08:47 46.51212 138.02278 35956 ft 417 kts 249°
2026-05-01 08:47 46.49712 137.94179 35952 ft 417 kts 249°
2026-05-01 08:48 46.48213 137.86113 35961 ft 416 kts 249°
2026-05-01 08:48 46.46720 137.78114 35969 ft 415 kts 250°
2026-05-01 08:49 46.45216 137.70087 35965 ft 414 kts 249°
2026-05-01 08:49 46.43710 137.62080 35963 ft 414 kts 249°
2026-05-01 08:50 46.42199 137.54085 35965 ft 413 kts 250°
2026-05-01 08:50 46.40678 137.46071 35960 ft 413 kts 249°
2026-05-01 08:51 46.39167 137.38135 35956 ft 413 kts 249°
2026-05-01 08:51 46.37657 137.30228 35930 ft 414 kts 248°
2026-05-01 08:52 46.36129 137.22237 35947 ft 414 kts 248°
2026-05-01 08:52 46.34599 137.14256 35973 ft 413 kts 249°
2026-05-01 08:53 46.33066 137.06294 35969 ft 413 kts 248°
2026-05-01 08:53 46.31542 136.98419 35972 ft 413 kts 248°
2026-05-01 08:54 46.29990 136.90436 35983 ft 413 kts 248°
2026-05-01 08:54 46.28427 136.82431 35966 ft 414 kts 248°
2026-05-01 08:55 46.26872 136.74493 35967 ft 414 kts 248°
2026-05-01 08:55 46.25304 136.66534 35961 ft 414 kts 249°
2026-05-01 08:56 46.23711 136.58580 35966 ft 414 kts 248°
2026-05-01 08:56 46.22127 136.50690 35972 ft 413 kts 248°
2026-05-01 08:57 46.20520 136.42731 35963 ft 413 kts 249°
2026-05-01 08:57 46.18921 136.34822 35945 ft 414 kts 248°
2026-05-01 08:58 46.17314 136.26874 35929 ft 414 kts 248°
2026-05-01 08:58 46.15702 136.18950 35947 ft 414 kts 248°
2026-05-01 08:59 46.14080 136.11028 35968 ft 413 kts 248°
2026-05-01 08:59 46.12463 136.03155 35981 ft 414 kts 248°
2026-05-01 09:00 46.10822 135.95212 35976 ft 414 kts 248°
2026-05-01 09:00 46.09197 135.87367 35985 ft 413 kts 248°
2026-05-01 09:01 46.07550 135.79471 35994 ft 413 kts 247°
2026-05-01 09:01 46.06080 135.71484 35981 ft 414 kts 251°
2026-05-01 09:02 46.04636 135.63567 35983 ft 414 kts 250°
2026-05-01 09:02 46.03161 135.55591 35974 ft 414 kts 250°
2026-05-01 09:03 46.01680 135.47626 35988 ft 413 kts 249°
2026-05-01 09:03 46.00196 135.39688 35990 ft 413 kts 250°
2026-05-01 09:04 45.98716 135.31805 35965 ft 413 kts 250°
2026-05-01 09:04 45.97217 135.23807 35966 ft 413 kts 249°
2026-05-01 09:05 45.95720 135.15894 35982 ft 412 kts 249°
2026-05-01 09:05 45.94218 135.07991 35985 ft 412 kts 249°
2026-05-01 09:06 45.92710 135.00089 35994 ft 412 kts 249°
2026-05-01 09:06 45.91121 134.92276 35984 ft 408 kts 244°
2026-05-01 09:07 45.88248 134.85458 35934 ft 401 kts 222°
2026-05-01 09:07 45.86031 134.83086 35941 ft 401 kts 210°
2026-05-01 09:07 45.83560 134.81249 35987 ft 400 kts 210°
2026-05-01 09:08 45.78727 134.77399 35985 ft 402 kts 211°
2026-05-01 09:08 45.73879 134.73488 35990 ft 403 kts 211°
2026-05-01 09:09 45.68967 134.69528 35981 ft 404 kts 211°
2026-05-01 09:09 45.64099 134.65611 35979 ft 405 kts 211°
2026-05-01 09:10 45.59166 134.61652 35973 ft 407 kts 211°
2026-05-01 09:10 45.54264 134.57724 35979 ft 405 kts 211°
2026-05-01 09:11 45.49374 134.53813 35970 ft 402 kts 211°
2026-05-01 09:11 45.44516 134.49936 35961 ft 401 kts 211°
2026-05-01 09:12 45.39705 134.46104 35976 ft 399 kts 210°
2026-05-01 09:12 45.34875 134.42264 35974 ft 398 kts 211°
2026-05-01 09:13 45.30062 134.38446 35977 ft 397 kts 210°
2026-05-01 09:13 45.25262 134.34642 35978 ft 396 kts 210°
2026-05-01 09:14 45.20463 134.30817 35967 ft 396 kts 210°
2026-05-01 09:14 45.15676 134.27033 35981 ft 396 kts 210°
2026-05-01 09:15 45.10865 134.23245 35982 ft 396 kts 210°
2026-05-01 09:15 45.06100 134.19499 35987 ft 395 kts 210°
2026-05-01 09:16 45.01302 134.15736 35990 ft 395 kts 209°
2026-05-01 09:17 44.94128 134.10123 35985 ft 394 kts 210°
2026-05-01 09:17 44.87107 134.04656 35940 ft 396 kts 210°
2026-05-01 09:18 44.79905 133.98984 35964 ft 396 kts 211°
2026-05-01 09:19 44.72809 133.93127 35942 ft 398 kts 211°
2026-05-01 09:19 44.70396 133.91153 35804 ft 399 kts 211°
2026-05-01 09:20 44.65707 133.87328 35312 ft 393 kts 210°
2026-05-01 09:20 44.60973 133.83473 34468 ft 394 kts 210°
2026-05-01 09:21 44.56271 133.79651 33474 ft 393 kts 210°
2026-05-01 09:21 44.53891 133.77719 32924 ft 394 kts 210°
2026-05-01 09:21 44.49186 133.73908 31861 ft 393 kts 211°
2026-05-01 09:22 44.44457 133.70082 30792 ft 392 kts 211°
2026-05-01 09:22 44.39774 133.66304 29732 ft 391 kts 211°
2026-05-01 09:23 44.37403 133.64391 29209 ft 390 kts 211°
2026-05-01 09:23 44.32748 133.60646 28223 ft 388 kts 211°
2026-05-01 09:24 44.28117 133.56926 27288 ft 383 kts 212°
2026-05-01 09:24 44.25825 133.55087 26820 ft 381 kts 212°
2026-05-01 09:24 44.21241 133.51411 25827 ft 379 kts 212°
2026-05-01 09:25 44.16697 133.47777 24829 ft 376 kts 213°
2026-05-01 09:25 44.12172 133.44162 23779 ft 375 kts 213°
2026-05-01 09:26 44.09924 133.42371 23240 ft 374 kts 213°
2026-05-01 09:26 44.05461 133.38817 22167 ft 370 kts 213°
2026-05-01 09:26 44.03236 133.37047 21637 ft 368 kts 213°
2026-05-01 09:27 43.98842 133.33550 20566 ft 365 kts 212°
2026-05-01 09:27 43.96650 133.31790 19984 ft 363 kts 212°
2026-05-01 09:27 43.94455 133.30040 19408 ft 362 kts 212°
2026-05-01 09:28 43.92314 133.28342 18845 ft 360 kts 212°
2026-05-01 09:28 43.90138 133.26619 18266 ft 358 kts 212°
2026-05-01 09:28 43.88039 133.24771 17567 ft 357 kts 222°
2026-05-01 09:28 43.86398 133.22304 16843 ft 354 kts 238°
2026-05-01 09:29 43.83982 133.16409 15524 ft 351 kts 239°
2026-05-01 09:29 43.82653 133.13619 14876 ft 350 kts 238°
2026-05-01 09:30 43.79981 133.08099 13770 ft 339 kts 238°
2026-05-01 09:30 43.78694 133.05466 13479 ft 328 kts 238°
2026-05-01 09:30 43.76210 133.00407 12831 ft 310 kts 238°
2026-05-01 09:31 43.75010 132.97967 12454 ft 304 kts 239°
2026-05-01 09:31 43.73840 132.95587 12086 ft 299 kts 238°
2026-05-01 09:31 43.71527 132.90898 11325 ft 291 kts 239°
2026-05-01 09:32 43.70393 132.88602 10927 ft 288 kts 239°
2026-05-01 09:32 43.68172 132.84108 10120 ft 284 kts 239°
2026-05-01 09:32 43.67061 132.81863 9706 ft 282 kts 239°
2026-05-01 09:33 43.65956 132.79629 9287 ft 280 kts 239°
2026-05-01 09:33 43.64903 132.77403 8873 ft 278 kts 242°
2026-05-01 09:33 43.62987 132.72816 8037 ft 275 kts 245°
2026-05-01 09:34 43.62065 132.70528 7616 ft 274 kts 245°
2026-05-01 09:34 43.61132 132.68221 7191 ft 274 kts 245°
2026-05-01 09:34 43.59298 132.63620 6215 ft 277 kts 246°
2026-05-01 09:35 43.58383 132.61308 5884 ft 273 kts 246°
2026-05-01 09:35 43.56543 132.56816 5182 ft 267 kts 245°
2026-05-01 09:35 43.55638 132.54656 5013 ft 257 kts 245°
2026-05-01 09:36 43.54760 132.52536 4776 ft 250 kts 246°
2026-05-01 09:36 43.53927 132.50475 4497 ft 246 kts 246°
2026-05-01 09:36 43.53115 132.48415 4196 ft 244 kts 247°
2026-05-01 09:36 43.52312 132.46368 3951 ft 244 kts 246°
2026-05-01 09:37 43.51504 132.44327 3748 ft 242 kts 247°
2026-05-01 09:37 43.49890 132.40274 3324 ft 242 kts 247°
2026-05-01 09:37 43.49081 132.38252 3144 ft 238 kts 246°
2026-05-01 09:38 43.47562 132.34543 2744 ft 213 kts 246°
2026-05-01 09:38 43.46870 132.32790 2463 ft 203 kts 246°
2026-05-01 09:38 43.46214 132.31125 2173 ft 195 kts 246°
2026-05-01 09:39 43.45031 132.28200 1866 ft 157 kts 248°
2026-05-01 09:39 43.44526 132.26942 1617 ft 151 kts 248°
2026-05-01 09:39 43.44031 132.25667 1469 ft 148 kts 247°
2026-05-01 09:40 43.43548 132.24452 1328 ft 147 kts 246°
2026-05-01 09:40 43.42544 132.21968 966 ft 150 kts 243°
2026-05-01 09:40 43.42039 132.20738 725 ft 146 kts 243°
2026-05-01 09:41 43.41553 132.19531 485 ft 139 kts 242°
2026-05-01 09:41 43.40592 132.17160 310 ft 154 kts 242°
2026-05-01 09:41 43.40059 132.15874 546 ft 155 kts 242°
2026-05-01 09:42 43.39513 132.14592 796 ft 159 kts 240°
2026-05-01 09:42 43.38933 132.13260 1019 ft 165 kts 242°
2026-05-01 09:42 43.37737 132.10373 1609 ft 184 kts 243°
2026-05-01 09:43 43.36388 132.07143 2132 ft 205 kts 247°
2026-05-01 09:43 43.35725 132.05382 2392 ft 214 kts 249°
2026-05-01 09:43 43.35030 132.03438 2660 ft 235 kts 249°
2026-05-01 09:44 43.33527 131.98944 3207 ft 278 kts 251°
2026-05-01 09:44 43.32745 131.96483 3386 ft 288 kts 251°
2026-05-01 09:44 43.31982 131.93919 3761 ft 285 kts 256°
2026-05-01 09:45 43.31616 131.91330 4009 ft 271 kts 274°
2026-05-01 09:45 43.32706 131.86711 3982 ft 253 kts 317°
2026-05-01 09:45 43.34105 131.85300 3873 ft 247 kts 340°
2026-05-01 09:46 43.35751 131.84834 3758 ft 240 kts
2026-05-01 09:46 43.37348 131.85332 3620 ft 236 kts 26°
2026-05-01 09:46 43.38627 131.86682 3434 ft 237 kts 48°
2026-05-01 09:46 43.39537 131.88576 3331 ft 232 kts 53°
2026-05-01 09:47 43.40411 131.90376 3475 ft 224 kts 51°
2026-05-01 09:47 43.41258 131.92201 3518 ft 224 kts 54°
2026-05-01 09:47 43.42051 131.94017 3602 ft 222 kts 56°
2026-05-01 09:47 43.42803 131.95906 3465 ft 230 kts 57°
2026-05-01 09:48 43.43581 131.97800 3522 ft 227 kts 54°
2026-05-01 09:48 43.44388 131.99641 3563 ft 223 kts 55°
2026-05-01 09:48 43.45169 132.01460 3631 ft 219 kts 55°
2026-05-01 09:48 43.45943 132.03270 3559 ft 220 kts 55°
2026-05-01 09:49 43.46711 132.05067 3581 ft 217 kts 54°
2026-05-01 09:49 43.47481 132.06845 3637 ft 211 kts 54°
2026-05-01 09:49 43.48228 132.08563 3542 ft 210 kts 54°
2026-05-01 09:49 43.48982 132.10263 3545 ft 203 kts 54°
2026-05-01 09:50 43.49658 132.11852 3582 ft 187 kts 54°
2026-05-01 09:50 43.50323 132.13400 3423 ft 185 kts 54°
2026-05-01 09:50 43.50967 132.14880 3384 ft 176 kts 53°
2026-05-01 09:50 43.51551 132.16240 3411 ft 155 kts 53°
2026-05-01 09:51 43.52092 132.17497 3264 ft 151 kts 53°
2026-05-01 09:51 43.52611 132.18709 3260 ft 144 kts 53°
2026-05-01 09:51 43.53105 132.19896 3268 ft 140 kts 53°
2026-05-01 09:51 43.53608 132.21037 3356 ft 139 kts 53°
2026-05-01 09:52 43.54086 132.22212 3424 ft 142 kts 53°
2026-05-01 09:52 43.54592 132.23377 3558 ft 143 kts 52°
2026-05-01 09:52 43.55127 132.24545 3684 ft 147 kts 51°
2026-05-01 09:52 43.55651 132.25763 3838 ft 148 kts 54°
2026-05-01 09:53 43.56153 132.27014 3965 ft 152 kts 56°
2026-05-01 09:53 43.56699 132.28291 4061 ft 155 kts 51°
2026-05-01 09:53 43.57264 132.29582 4149 ft 159 kts 53°
2026-05-01 09:53 43.57853 132.30894 4177 ft 164 kts 51°
2026-05-01 09:54 43.58476 132.32237 4251 ft 166 kts 52°
2026-05-01 09:54 43.58944 132.33734 4241 ft 180 kts 69°
2026-05-01 09:54 43.58987 132.35501 4275 ft 190 kts 92°
2026-05-01 09:54 43.58525 132.37245 4274 ft 198 kts 113°
2026-05-01 09:55 43.57635 132.38716 4265 ft 202 kts 135°
2026-05-01 09:55 43.56435 132.39645 4271 ft 205 kts 160°
2026-05-01 09:55 43.54996 132.39780 4104 ft 212 kts 190°
2026-05-01 09:55 43.53635 132.39096 4158 ft 202 kts 213°
2026-05-01 09:56 43.52431 132.38142 4139 ft 202 kts 213°
2026-05-01 09:56 43.51209 132.37118 3919 ft 208 kts 215°
2026-05-01 09:56 43.49990 132.36058 3793 ft 208 kts 215°
2026-05-01 09:56 43.48765 132.34970 3631 ft 208 kts 216°
2026-05-01 09:57 43.47558 132.33862 3371 ft 206 kts 218°
2026-05-01 09:57 43.46613 132.32448 3028 ft 202 kts 242°
2026-05-01 09:57 43.45934 132.30785 2787 ft 196 kts 249°
2026-05-01 09:57 43.45336 132.29106 2545 ft 192 kts 250°
2026-05-01 09:58 43.44747 132.27506 2152 ft 185 kts 248°
2026-05-01 09:58 43.44150 132.25974 1654 ft 183 kts 246°
2026-05-01 09:58 43.43557 132.24493 1302 ft 172 kts 244°
2026-05-01 09:58 43.43004 132.23129 1094 ft 155 kts 244°
2026-05-01 09:59 43.42475 132.21846 889 ft 152 kts 243°
2026-05-01 09:59 43.41987 132.20610 672 ft 143 kts 243°
2026-05-01 09:59 43.41518 132.19450 469 ft 137 kts 242°
2026-05-01 09:59 43.41059 132.18326 315 ft 135 kts 241°
2026-05-01 10:00 43.40602 132.17203 146 ft 134 kts 240°
2026-05-01 10:00 43.40154 132.16103 58 ft 127 kts 241°
2026-05-01 10:00 43.39800 132.15227 57 ft 77 kts 239°
2026-05-01 10:00 43.39614 132.14769 57 ft 32 kts 240°
2026-05-01 10:01 43.39518 132.14529 57 ft 23 kts 242°
2026-05-01 10:01 43.39443 132.14345 57 ft 18 kts 241°
2026-05-01 10:01 43.39384 132.14204 57 ft 12 kts 229°
2026-05-01 10:01 43.39309 132.14194 57 ft 12 kts 152°
2026-05-01 10:02 43.39257 132.14232 57 ft 0 kts 152°
2026-05-01 10:05 43.39254 132.14235 57 ft 1 kts 152°
2026-05-01 10:05 43.39238 132.14246 57 ft 3 kts 152°
2026-05-01 10:05 43.39209 132.14270 57 ft 5 kts 138°
2026-05-01 10:06 43.39200 132.14331 57 ft 8 kts 69°
2026-05-01 10:06 43.39231 132.14412 57 ft 11 kts 61°
2026-05-01 10:06 43.39273 132.14514 57 ft 13 kts 61°
2026-05-01 10:06 43.39323 132.14641 57 ft 16 kts 61°
2026-05-01 10:07 43.39384 132.14790 57 ft 19 kts 61°
2026-05-01 10:07 43.39451 132.14955 57 ft 19 kts 61°
2026-05-01 10:07 43.39515 132.15115 57 ft 19 kts 61°
2026-05-01 10:07 43.39579 132.15274 57 ft 18 kts 61°
2026-05-01 10:08 43.39699 132.15573 57 ft 14 kts 61°
2026-05-01 10:08 43.39737 132.15669 57 ft 7 kts 73°
2026-05-01 10:08 43.39726 132.15729 57 ft 6 kts 138°
2026-05-01 10:09 43.39691 132.15762 57 ft 5 kts 149°
2026-05-01 10:09 43.39659 132.15787 57 ft 4 kts 150°
2026-05-01 10:09 43.39632 132.15808 57 ft 4 kts 150°
2026-05-01 10:09 43.39610 132.15826 57 ft 3 kts 148°
2026-05-01 10:10 43.39600 132.15848 57 ft 2 kts 102°
2026-05-01 10:10 43.39601 132.15872 57 ft 2 kts 72°
2026-05-01 10:10 43.39623 132.15933 57 ft 3 kts 61°
2026-05-01 10:11 43.39635 132.15964 57 ft 4 kts 60°
2026-05-01 10:11 43.39648 132.15997 57 ft 4 kts 60°
2026-05-01 10:11 43.39663 132.16031 57 ft 4 kts 60°
2026-05-01 10:11 43.39679 132.16060 57 ft 3 kts 21°
2026-05-01 10:12 43.39701 132.16058 57 ft 3 kts 341°
2026-05-01 10:12 43.39719 132.16046 57 ft 2 kts 330°
2026-05-01 10:12 43.39729 132.16038 57 ft 0 kts 330°
2026-05-01 10:13 43.39732 132.16036 57 ft 0 kts 329°